MIDDLE PEAK CA US current weather conditions

sailwx.info

Wind from 124 at 6 knots gusting 10

Air temperature 12.2° C
Dewpoint 7.1° C

Last reported at 2018-Dec-09 17:36 UTC.
Time now 2018-Dec-09 19:06 UTC

Location: N 37°56' W 122°35'.
View on Google Maps.

See reports from other nearby stations

  
Tides and Currents Weather Stations Pressure Air Temp Water Temp Dewpoint Dewpoint Depression Visibility Wind Speed Wind Dir Waves Ship Positions
date/time (UTC)wind fromknots sea level pressurealtimeterstation pressurevisibilityair tempwater tempwave heightnotes
2018-Dec-09 17:36 124 6 gusting 10 12.2
2018-Dec-09 16:36 133 7 gusting 11 8.3
2018-Dec-09 15:36 131 7 gusting 10 6.7
2018-Dec-09 14:36 118 6 gusting 12 7.2
2018-Dec-09 13:36 129 8 gusting 13 7.2
2018-Dec-09 12:36 135 9 gusting 12 6.7
2018-Dec-09 11:36 132 9 gusting 12 7.2
2018-Dec-09 10:36 135 8 gusting 12 7.2
2018-Dec-09 09:36 136 7 gusting 10 7.8
2018-Dec-09 08:36 141 6 gusting 12 7.8
2018-Dec-09 07:36 139 6 gusting 9 8.3
2018-Dec-09 06:36 132 6 gusting 10 8.3
2018-Dec-09 05:36 122 6 gusting 13 7.8
2018-Dec-09 04:36 104 7 gusting 17 8.3
2018-Dec-09 03:36 097 8 gusting 13 8.3
2018-Dec-09 02:36 098 7 gusting 17 8.3
2018-Dec-09 01:36 099 8 gusting 13 8.9
2018-Dec-09 00:36 087 7 gusting 10 7.2
2018-Dec-08 23:36 062 6 gusting 11 8.3
2018-Dec-08 22:36 052 6 gusting 8 9.4
2018-Dec-08 21:36 062 5 gusting 14 10.0
2018-Dec-08 20:36 060 6 gusting 12 8.9
2018-Dec-08 19:36 094 8 gusting 13 10.0
2018-Dec-08 18:36 099 8 gusting 19 11.7
2018-Dec-08 17:36 093 10 gusting 19 9.4
2018-Dec-08 16:36 103 9 gusting 15 8.9
2018-Dec-08 15:36 090 8 gusting 13 6.7
2018-Dec-08 14:36 089 7 gusting 12 6.1
2018-Dec-08 13:36 073 6 gusting 9 6.1
2018-Dec-08 12:36 060 5 gusting 8 6.7
2018-Dec-08 11:36 058 5 gusting 6 7.8
2018-Dec-08 10:36 032 2 gusting 4 8.9
2018-Dec-08 09:36 8.9
2018-Dec-08 08:36 9.4
2018-Dec-08 07:36 132 1 gusting 2 8.9
2018-Dec-08 06:36 226 1 gusting 5 8.9
2018-Dec-08 05:36 197 2 gusting 5 8.9
2018-Dec-08 04:36 196 3 gusting 6 8.9
2018-Dec-08 03:36 166 5 gusting 6 8.9
2018-Dec-08 02:36 162 4 gusting 5 8.9
2018-Dec-08 01:36 160 2 gusting 3 8.9
2018-Dec-08 00:36 316 0 gusting 3 10.0
2018-Dec-07 23:36 171 1 gusting 7 11.1
2018-Dec-07 22:36 131 6 gusting 8 11.7
2018-Dec-07 21:36 138 4 gusting 8 12.8
2018-Dec-07 20:36 141 3 gusting 11 12.8
2018-Dec-07 19:36 165 4 gusting 8 12.8